Time,TemperatureF,DewpointF,PressureIn,WindDirection,WindDirectionDegrees,WindSpeedMPH,WindSpeedGustMPH,Humidity,HourlyPrecipIn,Conditions,Clouds,dailyrainin,SoftwareType,DateUTC
2013-03-18 00:02:00,70.0,65.7,29.86,SE,135,4.0,9.0,86,0.00,,,0.00,meteohub,2013-03-18 05:02:00,
2013-03-18 00:07:00,70.0,65.7,29.85,SE,135,4.0,7.0,86,0.00,,,0.00,meteohub,2013-03-18 05:07:00,
2013-03-18 00:12:00,70.0,65.7,29.85,SE,135,4.0,6.0,86,0.00,,,0.00,meteohub,2013-03-18 05:12:00,
2013-03-18 00:17:00,70.0,66.0,29.85,SE,135,4.0,5.0,87,0.00,,,0.00,meteohub,2013-03-18 05:17:00,
2013-03-18 00:22:00,70.0,66.0,29.85,SE,135,5.0,7.0,87,0.00,,,0.00,meteohub,2013-03-18 05:22:00,
2013-03-18 00:27:00,70.2,66.0,29.84,SE,135,3.0,8.0,87,0.00,,,0.00,meteohub,2013-03-18 05:27:00,
2013-03-18 00:32:00,70.0,66.0,29.84,SE,135,7.0,8.0,87,0.00,,,0.00,meteohub,2013-03-18 05:32:00,
2013-03-18 00:37:00,70.2,66.0,29.84,SE,135,4.0,7.0,87,0.00,,,0.00,meteohub,2013-03-18 05:37:00,
2013-03-18 00:42:00,70.2,66.0,29.84,SE,135,4.0,8.0,87,0.00,,,0.00,meteohub,2013-03-18 05:42:00,
2013-03-18 00:47:00,70.2,66.0,29.84,SE,135,7.0,8.0,87,0.00,,,0.00,meteohub,2013-03-18 05:47:00,
2013-03-18 00:52:00,70.2,66.0,29.84,SE,135,4.0,8.0,87,0.00,,,0.00,meteohub,2013-03-18 05:52:00,
2013-03-18 00:57:00,70.2,66.4,29.84,SSE,158,6.0,9.0,88,0.00,,,0.00,meteohub,2013-03-18 05:57:00,
2013-03-18 01:02:00,70.2,66.4,29.84,SE,135,8.0,9.0,88,0.00,,,0.00,meteohub,2013-03-18 06:02:00,
2013-03-18 01:07:00,70.2,66.4,29.83,SE,135,8.0,8.0,88,0.00,,,0.00,meteohub,2013-03-18 06:07:00,
2013-03-18 01:17:00,70.2,66.7,29.83,SE,135,6.0,8.0,89,0.00,,,0.00,meteohub,2013-03-18 06:17:00,
2013-03-18 01:22:00,70.0,66.6,29.83,SE,135,5.0,8.0,89,0.00,,,0.00,meteohub,2013-03-18 06:22:00,
2013-03-18 01:27:00,70.0,66.6,29.83,SE,135,4.0,8.0,89,0.00,,,0.00,meteohub,2013-03-18 06:27:00,
2013-03-18 01:32:00,70.0,66.6,29.83,SE,135,4.0,8.0,89,0.00,,,0.00,meteohub,2013-03-18 06:32:00,
2013-03-18 01:42:00,70.0,66.6,29.83,SSE,158,4.0,7.0,89,0.00,,,0.00,meteohub,2013-03-18 06:42:00,
2013-03-18 01:47:00,70.0,66.6,29.83,South,180,7.0,7.0,89,0.00,,,0.00,meteohub,2013-03-18 06:47:00,
2013-03-18 01:52:00,70.0,66.6,29.83,SE,135,4.0,8.0,89,0.00,,,0.00,meteohub,2013-03-18 06:52:00,
2013-03-18 01:57:00,70.0,66.6,29.83,SE,135,5.0,8.0,89,0.00,,,0.00,meteohub,2013-03-18 06:57:00,
2013-03-18 02:07:00,70.0,66.6,29.84,South,180,3.0,5.0,89,0.00,,,0.00,meteohub,2013-03-18 07:07:00,
2013-03-18 02:12:00,70.0,66.6,29.83,South,180,4.0,6.0,89,0.00,,,0.00,meteohub,2013-03-18 07:12:00,
2013-03-18 02:17:00,70.2,66.7,29.84,SE,135,4.0,8.0,89,0.00,,,0.00,meteohub,2013-03-18 07:17:00,
2013-03-18 02:22:00,70.2,66.7,29.84,South,180,5.0,8.0,89,0.00,,,0.00,meteohub,2013-03-18 07:22:00,
2013-03-18 02:27:00,70.2,66.7,29.83,SE,135,4.0,8.0,89,0.00,,,0.00,meteohub,2013-03-18 07:27:00,
2013-03-18 02:32:00,70.3,66.9,29.83,SSE,158,5.0,8.0,89,0.00,,,0.00,meteohub,2013-03-18 07:32:00,
2013-03-18 02:37:00,70.3,66.9,29.84,SE,135,2.0,8.0,89,0.00,,,0.00,meteohub,2013-03-18 07:37:00,
2013-03-18 02:42:00,70.2,66.7,29.83,SE,135,5.0,6.0,89,0.00,,,0.00,meteohub,2013-03-18 07:42:00,
2013-03-18 02:52:00,70.3,67.3,29.83,South,180,4.0,5.0,90,0.00,,,0.00,meteohub,2013-03-18 07:52:00,
2013-03-18 02:57:00,70.2,67.1,29.83,South,180,5.0,6.0,90,0.00,,,0.00,meteohub,2013-03-18 07:57:00,
2013-03-18 03:07:00,70.2,67.1,29.84,SE,135,6.0,6.0,90,0.00,,,0.00,meteohub,2013-03-18 08:07:00,
2013-03-18 03:12:00,70.2,67.6,29.83,South,180,5.0,6.0,92,0.00,,,0.00,meteohub,2013-03-18 08:12:00,
2013-03-18 03:17:00,70.2,67.6,29.83,SSE,158,4.0,6.0,92,0.00,,,0.00,meteohub,2013-03-18 08:17:00,
2013-03-18 03:27:00,70.2,68.0,29.83,South,180,3.0,5.0,93,0.00,,,0.00,meteohub,2013-03-18 08:27:00,
2013-03-18 03:32:00,70.0,67.8,29.83,SE,135,3.0,5.0,93,0.00,,,0.00,meteohub,2013-03-18 08:32:00,
2013-03-18 03:37:00,70.0,67.8,29.83,SE,135,4.0,4.0,93,0.00,,,0.00,meteohub,2013-03-18 08:37:00,
2013-03-18 03:47:00,70.0,68.2,29.83,SE,135,2.0,7.0,94,0.00,,,0.00,meteohub,2013-03-18 08:47:00,
2013-03-18 03:52:00,70.0,68.2,29.83,South,180,4.0,5.0,94,0.00,,,0.00,meteohub,2013-03-18 08:52:00,
2013-03-18 03:57:00,70.0,68.2,29.82,SE,135,2.0,5.0,94,0.00,,,0.00,meteohub,2013-03-18 08:57:00,
2013-03-18 04:02:00,70.2,68.4,29.82,South,180,4.0,4.0,94,0.00,,,0.00,meteohub,2013-03-18 09:02:00,
2013-03-18 04:07:00,70.2,68.4,29.83,South,180,4.0,4.0,94,0.00,,,0.00,meteohub,2013-03-18 09:07:00,
2013-03-18 04:12:00,70.2,68.4,29.82,South,180,5.0,5.0,94,0.00,,,0.00,meteohub,2013-03-18 09:12:00,
2013-03-18 04:17:00,70.3,68.5,29.82,South,180,5.0,5.0,94,0.00,,,0.00,meteohub,2013-03-18 09:17:00,
2013-03-18 04:22:00,70.2,68.4,29.83,SE,135,4.0,5.0,94,0.00,,,0.00,meteohub,2013-03-18 09:22:00,
2013-03-18 04:27:00,70.3,68.2,29.83,SE,135,4.0,5.0,93,0.00,,,0.00,meteohub,2013-03-18 09:27:00,
2013-03-18 04:32:00,70.3,68.5,29.82,SE,135,4.0,5.0,94,0.00,,,0.00,meteohub,2013-03-18 09:32:00,
2013-03-18 04:42:00,70.3,68.2,29.81,SE,135,2.0,4.0,93,0.00,,,0.00,meteohub,2013-03-18 09:42:00,
2013-03-18 04:47:00,70.3,68.2,29.81,SSE,158,4.0,4.0,93,0.00,,,0.00,meteohub,2013-03-18 09:47:00,
2013-03-18 04:52:00,70.3,68.5,29.81,South,180,4.0,5.0,94,0.00,,,0.00,meteohub,2013-03-18 09:52:00,
2013-03-18 04:57:00,70.3,68.5,29.81,SE,135,4.0,5.0,94,0.00,,,0.00,meteohub,2013-03-18 09:57:00,
2013-03-18 05:07:00,70.2,68.4,29.81,SE,135,4.0,4.0,94,0.00,,,0.00,meteohub,2013-03-18 10:07:00,
2013-03-18 05:12:00,70.2,68.4,29.81,SW,225,4.0,4.0,94,0.00,,,0.00,meteohub,2013-03-18 10:12:00,
2013-03-18 05:22:00,70.2,68.4,29.82,South,180,6.0,7.0,94,0.00,,,0.00,meteohub,2013-03-18 10:22:00,
2013-03-18 05:27:00,70.2,68.0,29.82,South,180,6.0,7.0,93,0.00,,,0.00,meteohub,2013-03-18 10:27:00,
2013-03-18 05:32:00,70.3,68.2,29.83,South,180,5.0,8.0,93,0.00,,,0.00,meteohub,2013-03-18 10:32:00,
2013-03-18 05:37:00,70.3,68.2,29.82,South,180,4.0,8.0,93,0.00,,,0.00,meteohub,2013-03-18 10:37:00,
2013-03-18 05:42:00,70.3,68.2,29.82,SE,135,5.0,6.0,93,0.00,,,0.00,meteohub,2013-03-18 10:42:00,
2013-03-18 05:47:00,70.3,68.2,29.83,SE,135,4.0,5.0,93,0.00,,,0.00,meteohub,2013-03-18 10:47:00,
2013-03-18 05:52:00,70.3,68.2,29.83,South,180,4.0,5.0,93,0.00,,,0.00,meteohub,2013-03-18 10:52:00,
2013-03-18 05:57:00,70.5,68.4,29.83,SE,135,6.0,6.0,93,0.00,,,0.00,meteohub,2013-03-18 10:57:00,
2013-03-18 06:02:00,70.3,68.2,29.82,South,180,8.0,8.0,93,0.00,,,0.00,meteohub,2013-03-18 11:02:00,
2013-03-18 06:12:00,70.3,68.2,29.83,SSE,158,6.0,8.0,93,0.00,,,0.00,meteohub,2013-03-18 11:12:00,
2013-03-18 06:22:00,70.2,68.0,29.83,South,180,4.0,8.0,93,0.00,,,0.00,meteohub,2013-03-18 11:22:00,
2013-03-18 06:27:00,70.2,68.0,29.83,South,180,5.0,6.0,93,0.00,,,0.00,meteohub,2013-03-18 11:27:00,
2013-03-18 06:32:00,70.2,68.0,29.83,East,90,5.0,5.0,93,0.00,,,0.00,meteohub,2013-03-18 11:32:00,
2013-03-18 06:37:00,70.2,68.0,29.83,SE,135,4.0,8.0,93,0.00,,,0.00,meteohub,2013-03-18 11:37:00,
2013-03-18 06:42:00,70.2,68.0,29.83,South,180,8.0,8.0,93,0.00,,,0.00,meteohub,2013-03-18 11:42:00,
2013-03-18 06:47:00,70.2,68.0,29.83,SSE,158,5.0,8.0,93,0.00,,,0.00,meteohub,2013-03-18 11:47:00,
2013-03-18 06:52:00,70.2,68.0,29.83,South,180,4.0,8.0,93,0.00,,,0.00,meteohub,2013-03-18 11:52:00,
2013-03-18 06:57:00,70.2,68.0,29.83,SE,135,4.0,10.0,93,0.00,,,0.00,meteohub,2013-03-18 11:57:00,
2013-03-18 07:02:00,70.2,68.0,29.83,South,180,8.0,10.0,93,0.00,,,0.00,meteohub,2013-03-18 12:02:00,
2013-03-18 07:12:00,70.2,68.0,29.83,SE,135,3.0,8.0,93,0.00,,,0.00,meteohub,2013-03-18 12:12:00,
2013-03-18 07:17:00,70.2,68.0,29.83,South,180,6.0,8.0,93,0.00,,,0.00,meteohub,2013-03-18 12:17:00,
2013-03-18 07:22:00,70.3,68.2,29.84,SSE,158,3.0,8.0,93,0.00,,,0.00,meteohub,2013-03-18 12:22:00,
2013-03-18 07:27:00,70.2,68.0,29.85,South,180,3.0,6.0,93,0.00,,,0.00,meteohub,2013-03-18 12:27:00,
2013-03-18 07:32:00,70.3,68.2,29.86,SW,225,7.0,7.0,93,0.00,,,0.00,meteohub,2013-03-18 12:32:00,
2013-03-18 07:37:00,70.2,68.0,29.86,SW,225,4.0,7.0,93,0.00,,,0.00,meteohub,2013-03-18 12:37:00,
2013-03-18 07:42:00,70.2,68.0,29.86,South,180,4.0,7.0,93,0.00,,,0.00,meteohub,2013-03-18 12:42:00,
2013-03-18 07:52:00,70.2,68.0,29.86,South,180,3.0,7.0,93,0.00,,,0.00,meteohub,2013-03-18 12:52:00,
2013-03-18 07:57:00,70.3,68.2,29.87,South,180,4.0,7.0,93,0.00,,,0.00,meteohub,2013-03-18 12:57:00,
2013-03-18 08:07:00,70.2,68.0,29.87,South,180,4.0,7.0,93,0.00,,,0.00,meteohub,2013-03-18 13:07:00,
2013-03-18 08:12:00,70.2,68.0,29.87,South,180,4.0,5.0,93,0.00,,,0.00,meteohub,2013-03-18 13:12:00,
2013-03-18 08:17:00,70.3,68.2,29.87,South,180,4.0,6.0,93,0.00,,,0.00,meteohub,2013-03-18 13:17:00,
2013-03-18 08:22:00,70.2,68.0,29.87,South,180,8.0,8.0,93,0.00,,,0.00,meteohub,2013-03-18 13:22:00,
2013-03-18 08:27:00,70.3,68.2,29.88,South,180,4.0,8.0,93,0.00,,,0.00,meteohub,2013-03-18 13:27:00,
2013-03-18 08:32:00,70.3,68.2,29.88,South,180,2.0,8.0,93,0.00,,,0.00,meteohub,2013-03-18 13:32:00,
2013-03-18 08:37:00,70.3,68.2,29.88,South,180,3.0,8.0,93,0.00,,,0.00,meteohub,2013-03-18 13:37:00,
2013-03-18 08:47:00,70.3,67.8,29.88,South,180,5.0,7.0,92,0.00,,,0.00,meteohub,2013-03-18 13:47:00,
2013-03-18 08:52:00,70.5,68.0,29.88,South,180,5.0,7.0,92,0.00,,,0.00,meteohub,2013-03-18 13:52:00,
2013-03-18 08:57:00,70.7,68.2,29.87,SE,135,4.0,8.0,92,0.00,,,0.00,meteohub,2013-03-18 13:57:00,
2013-03-18 09:02:00,70.7,68.2,29.88,South,180,7.0,8.0,92,0.00,,,0.00,meteohub,2013-03-18 14:02:00,
2013-03-18 09:07:00,70.7,68.2,29.88,South,180,7.0,8.0,92,0.00,,,0.00,meteohub,2013-03-18 14:07:00,
2013-03-18 09:17:00,71.1,68.4,29.88,South,180,4.0,9.0,91,0.00,,,0.00,meteohub,2013-03-18 14:17:00,
2013-03-18 09:27:00,71.4,68.7,29.88,South,180,8.0,9.0,91,0.00,,,0.00,meteohub,2013-03-18 14:27:00,
2013-03-18 09:32:00,71.4,68.4,29.88,South,180,4.0,9.0,90,0.00,,,0.00,meteohub,2013-03-18 14:32:00,
2013-03-18 09:37:00,71.6,68.5,29.88,South,180,6.0,9.0,90,0.00,,,0.00,meteohub,2013-03-18 14:37:00,
2013-03-18 09:42:00,72.0,68.5,29.88,SW,225,6.0,10.0,89,0.00,,,0.00,meteohub,2013-03-18 14:42:00,
2013-03-18 09:47:00,72.0,68.5,29.88,South,180,5.0,10.0,89,0.00,,,0.00,meteohub,2013-03-18 14:47:00,
2013-03-18 09:52:00,72.1,68.4,29.88,South,180,7.0,10.0,88,0.00,,,0.00,meteohub,2013-03-18 14:52:00,
2013-03-18 09:57:00,72.5,68.4,29.88,South,180,5.0,8.0,87,0.00,,,0.00,meteohub,2013-03-18 14:57:00,
2013-03-18 10:02:00,72.5,68.4,29.87,South,180,8.0,8.0,87,0.00,,,0.00,meteohub,2013-03-18 15:02:00,
2013-03-18 10:07:00,72.5,68.4,29.88,South,180,8.0,8.0,87,0.00,,,0.00,meteohub,2013-03-18 15:07:00,
2013-03-18 10:12:00,73.4,68.2,29.88,South,180,8.0,8.0,84,0.00,,,0.00,meteohub,2013-03-18 15:12:00,
2013-03-18 10:17:00,74.1,68.9,29.88,SE,135,3.0,8.0,84,0.00,,,0.00,meteohub,2013-03-18 15:17:00,
2013-03-18 10:22:00,74.5,68.5,29.88,South,180,5.0,8.0,82,0.00,,,0.00,meteohub,2013-03-18 15:22:00,
2013-03-18 10:32:00,73.9,68.2,29.88,SE,135,6.0,7.0,82,0.00,,,0.00,meteohub,2013-03-18 15:32:00,
2013-03-18 10:37:00,74.3,68.4,29.88,South,180,8.0,10.0,82,0.00,,,0.00,meteohub,2013-03-18 15:37:00,
2013-03-18 10:42:00,75.0,68.4,29.87,SE,135,11.0,11.0,80,0.00,,,0.00,meteohub,2013-03-18 15:42:00,
2013-03-18 10:47:00,75.7,68.0,29.87,SE,135,8.0,11.0,77,0.00,,,0.00,meteohub,2013-03-18 15:47:00,
2013-03-18 10:52:00,75.7,67.6,29.87,SE,135,12.0,12.0,76,0.00,,,0.00,meteohub,2013-03-18 15:52:00,
2013-03-18 10:57:00,75.9,68.2,29.87,South,180,7.0,14.0,77,0.00,,,0.00,meteohub,2013-03-18 15:57:00,
2013-03-18 11:02:00,76.6,68.2,29.87,SE,135,7.0,14.0,75,0.00,,,0.00,meteohub,2013-03-18 16:02:00,
2013-03-18 11:07:00,76.6,68.2,29.87,SE,135,7.0,14.0,75,0.00,,,0.00,meteohub,2013-03-18 16:07:00,
2013-03-18 11:12:00,77.5,67.5,29.86,South,180,12.0,12.0,71,0.00,,,0.00,meteohub,2013-03-18 16:12:00,
2013-03-18 11:17:00,77.2,67.1,29.86,South,180,8.0,15.0,71,0.00,,,0.00,meteohub,2013-03-18 16:17:00,
2013-03-18 11:22:00,77.7,67.1,29.86,South,180,11.0,15.0,70,0.00,,,0.00,meteohub,2013-03-18 16:22:00,
2013-03-18 11:27:00,77.5,66.2,29.86,South,180,14.0,15.0,68,0.00,,,0.00,meteohub,2013-03-18 16:27:00,
2013-03-18 11:32:00,77.9,66.6,29.86,South,180,10.0,14.0,68,0.00,,,0.00,meteohub,2013-03-18 16:32:00,
2013-03-18 11:42:00,77.9,65.1,29.86,SE,135,4.0,14.0,65,0.00,,,0.00,meteohub,2013-03-18 16:42:00,
2013-03-18 11:47:00,78.1,65.3,29.86,South,180,6.0,13.0,65,0.00,,,0.00,meteohub,2013-03-18 16:47:00,
2013-03-18 11:52:00,78.1,63.5,29.86,South,180,11.0,11.0,61,0.00,,,0.00,meteohub,2013-03-18 16:52:00,
2013-03-18 11:57:00,78.4,63.3,29.86,SW,225,10.0,15.0,60,0.00,,,0.00,meteohub,2013-03-18 16:57:00,
2013-03-18 12:07:00,78.3,62.8,29.86,South,180,9.0,15.0,59,0.00,,,0.00,meteohub,2013-03-18 17:07:00,
2013-03-18 12:12:00,79.3,63.3,29.86,South,180,9.0,11.0,58,0.00,,,0.00,meteohub,2013-03-18 17:12:00,
2013-03-18 12:17:00,79.2,62.6,29.85,South,180,9.0,11.0,57,0.00,,,0.00,meteohub,2013-03-18 17:17:00,
2013-03-18 12:22:00,79.0,63.0,29.85,SE,135,9.0,11.0,58,0.00,,,0.00,meteohub,2013-03-18 17:22:00,
2013-03-18 12:27:00,79.2,62.6,29.85,South,180,9.0,11.0,57,0.00,,,0.00,meteohub,2013-03-18 17:27:00,
2013-03-18 12:32:00,79.5,62.4,29.85,South,180,12.0,16.0,56,0.00,,,0.00,meteohub,2013-03-18 17:32:00,
2013-03-18 12:37:00,79.5,63.0,29.85,South,180,10.0,16.0,57,0.00,,,0.00,meteohub,2013-03-18 17:37:00,
2013-03-18 12:42:00,79.5,63.0,29.84,SW,225,10.0,16.0,57,0.00,,,0.00,meteohub,2013-03-18 17:42:00,
2013-03-18 12:47:00,79.5,62.4,29.84,South,180,4.0,15.0,56,0.00,,,0.00,meteohub,2013-03-18 17:47:00,
2013-03-18 12:52:00,80.1,62.4,29.84,SW,225,13.0,13.0,55,0.00,,,0.00,meteohub,2013-03-18 17:52:00,
2013-03-18 12:57:00,80.6,62.4,29.84,SW,225,10.0,13.0,54,0.00,,,0.00,meteohub,2013-03-18 17:57:00,
2013-03-18 13:02:00,81.1,60.8,29.84,South,180,13.0,13.0,50,0.00,,,0.00,meteohub,2013-03-18 18:02:00,
2013-03-18 13:07:00,81.1,60.8,29.83,South,180,13.0,13.0,50,0.00,,,0.00,meteohub,2013-03-18 18:07:00,
2013-03-18 13:12:00,80.1,61.3,29.83,South,180,10.0,17.0,53,0.00,,,0.00,meteohub,2013-03-18 18:12:00,
2013-03-18 13:17:00,80.2,62.1,29.83,South,180,7.0,17.0,54,0.00,,,0.00,meteohub,2013-03-18 18:17:00,
2013-03-18 13:22:00,80.4,62.2,29.83,South,180,5.0,17.0,54,0.00,,,0.00,meteohub,2013-03-18 18:22:00,
2013-03-18 13:27:00,80.6,62.4,29.83,South,180,11.0,12.0,54,0.00,,,0.00,meteohub,2013-03-18 18:27:00,
2013-03-18 13:37:00,80.8,61.5,29.82,SSE,158,6.0,13.0,52,0.00,,,0.00,meteohub,2013-03-18 18:37:00,
2013-03-18 13:42:00,80.8,61.5,29.82,NW,315,12.0,13.0,52,0.00,,,0.00,meteohub,2013-03-18 18:42:00,
2013-03-18 13:47:00,81.0,61.2,29.81,South,180,11.0,13.0,51,0.00,,,0.00,meteohub,2013-03-18 18:47:00,
2013-03-18 13:57:00,81.3,61.0,29.81,South,180,10.0,15.0,50,0.00,,,0.00,meteohub,2013-03-18 18:57:00,
2013-03-18 14:02:00,81.7,61.2,29.81,South,180,6.0,15.0,50,0.00,,,0.00,meteohub,2013-03-18 19:02:00,
2013-03-18 14:12:00,81.1,61.3,29.80,South,180,9.0,14.0,51,0.00,,,0.00,meteohub,2013-03-18 19:12:00,
2013-03-18 14:17:00,81.7,63.0,29.80,South,180,6.0,14.0,53,0.00,,,0.00,meteohub,2013-03-18 19:17:00,
2013-03-18 14:22:00,81.9,61.3,29.80,South,180,10.0,14.0,50,0.00,,,0.00,meteohub,2013-03-18 19:22:00,
2013-03-18 14:27:00,81.5,61.0,29.79,South,180,10.0,14.0,50,0.00,,,0.00,meteohub,2013-03-18 19:27:00,
2013-03-18 14:32:00,81.7,60.1,29.79,South,180,9.0,14.0,48,0.00,,,0.00,meteohub,2013-03-18 19:32:00,
2013-03-18 14:42:00,82.0,59.9,29.78,SSE,158,11.0,14.0,47,0.00,,,0.00,meteohub,2013-03-18 19:42:00,
2013-03-18 14:47:00,82.2,60.6,29.78,SSE,158,10.0,14.0,48,0.00,,,0.00,meteohub,2013-03-18 19:47:00,
2013-03-18 14:52:00,82.2,60.6,29.78,South,180,7.0,14.0,48,0.00,,,0.00,meteohub,2013-03-18 19:52:00,
2013-03-18 15:02:00,82.2,60.6,29.78,South,180,10.0,17.0,48,0.00,,,0.00,meteohub,2013-03-18 20:02:00,
2013-03-18 15:07:00,82.4,60.8,29.78,South,180,11.0,17.0,48,0.00,,,0.00,meteohub,2013-03-18 20:07:00,
2013-03-18 15:17:00,82.4,60.1,29.77,South,180,11.0,16.0,47,0.00,,,0.00,meteohub,2013-03-18 20:17:00,
2013-03-18 15:22:00,82.4,60.1,29.77,South,180,11.0,16.0,47,0.00,,,0.00,meteohub,2013-03-18 20:22:00,
2013-03-18 15:32:00,82.4,60.1,29.77,SW,225,10.0,14.0,47,0.00,,,0.00,meteohub,2013-03-18 20:32:00,
2013-03-18 15:37:00,82.4,60.8,29.77,SSE,158,4.0,15.0,48,0.00,,,0.00,meteohub,2013-03-18 20:37:00,
2013-03-18 15:42:00,83.3,61.0,29.77,SW,225,6.0,15.0,47,0.00,,,0.00,meteohub,2013-03-18 20:42:00,
2013-03-18 15:52:00,83.1,59.5,29.77,South,180,6.0,11.0,45,0.00,,,0.00,meteohub,2013-03-18 20:52:00,
2013-03-18 16:02:00,83.1,59.5,29.77,SE,135,10.0,13.0,45,0.00,,,0.00,meteohub,2013-03-18 21:02:00,
2013-03-18 16:07:00,83.1,59.5,29.77,SE,135,10.0,13.0,45,0.00,,,0.00,meteohub,2013-03-18 21:07:00,
2013-03-18 16:12:00,83.1,60.3,29.77,South,180,6.0,16.0,46,0.00,,,0.00,meteohub,2013-03-18 21:12:00,
2013-03-18 16:17:00,83.1,59.5,29.76,South,180,7.0,16.0,45,0.00,,,0.00,meteohub,2013-03-18 21:17:00,
2013-03-18 16:22:00,83.7,60.1,29.76,SW,225,11.0,16.0,45,0.00,,,0.00,meteohub,2013-03-18 21:22:00,
2013-03-18 16:27:00,83.1,59.0,29.76,South,180,9.0,13.0,44,0.00,,,0.00,meteohub,2013-03-18 21:27:00,
2013-03-18 16:32:00,82.8,59.2,29.75,SW,225,4.0,13.0,45,0.00,,,0.00,meteohub,2013-03-18 21:32:00,
2013-03-18 16:37:00,83.1,60.3,29.75,East,90,3.0,13.0,46,0.00,,,0.00,meteohub,2013-03-18 21:37:00,
2013-03-18 16:42:00,83.8,60.8,29.75,South,180,8.0,10.0,46,0.00,,,0.00,meteohub,2013-03-18 21:42:00,
2013-03-18 16:52:00,83.5,59.4,29.75,SW,225,8.0,13.0,44,0.00,,,0.00,meteohub,2013-03-18 21:52:00,
2013-03-18 16:57:00,83.5,59.4,29.76,SSW,203,10.0,13.0,44,0.00,,,0.00,meteohub,2013-03-18 21:57:00,
2013-03-18 17:07:00,82.8,59.2,29.76,South,180,6.0,12.0,45,0.00,,,0.00,meteohub,2013-03-18 22:07:00,
2013-03-18 17:12:00,82.8,59.2,29.75,SSW,203,9.0,12.0,45,0.00,,,0.00,meteohub,2013-03-18 22:12:00,
2013-03-18 17:17:00,82.8,58.6,29.75,South,180,9.0,11.0,44,0.00,,,0.00,meteohub,2013-03-18 22:17:00,
2013-03-18 17:22:00,82.8,59.2,29.75,South,180,9.0,11.0,45,0.00,,,0.00,meteohub,2013-03-18 22:22:00,
2013-03-18 17:27:00,82.6,59.0,29.76,South,180,6.0,11.0,45,0.00,,,0.00,meteohub,2013-03-18 22:27:00,
2013-03-18 17:37:00,82.4,59.5,29.76,SW,225,5.0,12.0,46,0.00,,,0.00,meteohub,2013-03-18 22:37:00,
2013-03-18 17:47:00,82.0,60.4,29.76,SW,225,7.0,11.0,48,0.00,,,0.00,meteohub,2013-03-18 22:47:00,
2013-03-18 17:52:00,81.9,60.3,29.76,SW,225,8.0,11.0,48,0.00,,,0.00,meteohub,2013-03-18 22:52:00,
2013-03-18 18:02:00,81.3,60.3,29.77,South,180,11.0,11.0,49,0.00,,,0.00,meteohub,2013-03-18 23:02:00,
2013-03-18 18:07:00,81.1,60.8,29.77,South,180,6.0,11.0,50,0.00,,,0.00,meteohub,2013-03-18 23:07:00,
2013-03-18 18:17:00,80.6,60.8,29.77,South,180,7.0,11.0,51,0.00,,,0.00,meteohub,2013-03-18 23:17:00,
2013-03-18 18:22:00,80.6,60.8,29.77,South,180,7.0,9.0,51,0.00,,,0.00,meteohub,2013-03-18 23:22:00,
2013-03-18 18:27:00,80.2,61.0,29.77,South,180,7.0,9.0,52,0.00,,,0.00,meteohub,2013-03-18 23:27:00,
2013-03-18 18:32:00,79.9,61.2,29.77,South,180,4.0,10.0,53,0.00,,,0.00,meteohub,2013-03-18 23:32:00,
2013-03-18 18:37:00,79.5,60.8,29.77,SE,135,7.0,10.0,53,0.00,,,0.00,meteohub,2013-03-18 23:37:00,
2013-03-18 18:47:00,79.2,61.2,29.77,South,180,4.0,8.0,54,0.00,,,0.00,meteohub,2013-03-18 23:47:00,
2013-03-18 18:52:00,79.0,61.5,29.77,South,180,4.0,8.0,55,0.00,,,0.00,meteohub,2013-03-18 23:52:00,
2013-03-18 18:57:00,78.8,61.3,29.77,South,180,4.0,8.0,55,0.00,,,0.00,meteohub,2013-03-18 23:57:00,
2013-03-18 19:02:00,78.8,61.3,29.77,South,180,4.0,8.0,55,0.00,,,0.00,meteohub,2013-03-19 00:02:00,
2013-03-18 19:07:00,78.8,61.3,29.77,South,180,4.0,8.0,55,0.00,,,0.00,meteohub,2013-03-19 00:07:00,
2013-03-18 19:12:00,78.1,61.2,29.76,South,180,8.0,8.0,56,0.00,,,0.00,meteohub,2013-03-19 00:12:00,
2013-03-18 19:17:00,78.1,61.5,29.76,South,180,6.0,9.0,57,0.00,,,0.00,meteohub,2013-03-19 00:17:00,
2013-03-18 19:27:00,77.7,61.7,29.77,SSE,158,5.0,9.0,58,0.00,,,0.00,meteohub,2013-03-19 00:27:00,
2013-03-18 19:32:00,77.4,61.3,29.78,South,180,4.0,8.0,58,0.00,,,0.00,meteohub,2013-03-19 00:32:00,
2013-03-18 19:42:00,77.0,62.1,29.78,SSE,158,4.0,8.0,60,0.00,,,0.00,meteohub,2013-03-19 00:42:00,
2013-03-18 19:47:00,76.6,62.2,29.77,South,180,7.0,8.0,61,0.00,,,0.00,meteohub,2013-03-19 00:47:00,
2013-03-18 19:52:00,76.5,62.4,29.78,SSE,158,4.0,7.0,62,0.00,,,0.00,meteohub,2013-03-19 00:52:00,
2013-03-18 19:57:00,76.1,62.6,29.78,SW,225,4.0,7.0,63,0.00,,,0.00,meteohub,2013-03-19 00:57:00,
2013-03-18 20:02:00,76.1,62.6,29.78,South,180,4.0,8.0,63,0.00,,,0.00,meteohub,2013-03-19 01:02:00,
2013-03-18 20:12:00,75.6,63.0,29.79,SW,225,10.0,10.0,65,0.00,,,0.00,meteohub,2013-03-19 01:12:00,
2013-03-18 20:22:00,75.2,63.1,29.79,South,180,6.0,10.0,66,0.00,,,0.00,meteohub,2013-03-19 01:22:00,
2013-03-18 20:27:00,75.0,63.3,29.80,South,180,5.0,10.0,67,0.00,,,0.00,meteohub,2013-03-19 01:27:00,
2013-03-18 20:32:00,74.8,63.5,29.80,SW,225,7.0,9.0,68,0.00,,,0.00,meteohub,2013-03-19 01:32:00,
2013-03-18 20:37:00,74.7,63.3,29.80,South,180,3.0,7.0,68,0.00,,,0.00,meteohub,2013-03-19 01:37:00,
2013-03-18 20:47:00,74.1,63.0,29.81,SW,225,3.0,7.0,68,0.00,,,0.00,meteohub,2013-03-19 01:47:00,
2013-03-18 20:52:00,73.9,63.1,29.82,South,180,4.0,4.0,69,0.00,,,0.00,meteohub,2013-03-19 01:52:00,
2013-03-18 20:57:00,73.9,63.5,29.82,South,180,2.0,4.0,70,0.00,,,0.00,meteohub,2013-03-19 01:57:00,
2013-03-18 21:02:00,73.6,63.1,29.83,South,180,2.0,4.0,70,0.00,,,0.00,meteohub,2013-03-19 02:02:00,
2013-03-18 21:07:00,73.6,63.1,29.83,South,180,2.0,4.0,70,0.00,,,0.00,meteohub,2013-03-19 02:07:00,
2013-03-18 21:12:00,73.4,63.5,29.83,SSW,203,2.0,4.0,71,0.00,,,0.00,meteohub,2013-03-19 02:12:00,
2013-03-18 21:22:00,73.0,63.5,29.84,South,180,2.0,4.0,72,0.00,,,0.00,meteohub,2013-03-19 02:22:00,
2013-03-18 21:27:00,73.0,63.5,29.84,South,180,2.0,4.0,72,0.00,,,0.00,meteohub,2013-03-19 02:27:00,
2013-03-18 21:32:00,72.9,63.7,29.84,South,180,3.0,4.0,73,0.00,,,0.00,meteohub,2013-03-19 02:32:00,
2013-03-18 21:37:00,72.7,63.5,29.84,South,180,2.0,4.0,73,0.00,,,0.00,meteohub,2013-03-19 02:37:00,
2013-03-18 21:47:00,72.5,63.7,29.85,South,180,3.0,4.0,74,0.00,,,0.00,meteohub,2013-03-19 02:47:00,
2013-03-18 21:52:00,72.3,63.5,29.85,SW,225,2.0,3.0,74,0.00,,,0.00,meteohub,2013-03-19 02:52:00,
2013-03-18 21:57:00,72.1,63.3,29.86,West,270,0.0,3.0,74,0.00,,,0.00,meteohub,2013-03-19 02:57:00,
2013-03-18 22:02:00,72.0,63.1,29.86,SW,225,2.0,3.0,74,0.00,,,0.00,meteohub,2013-03-19 03:02:00,
2013-03-18 22:07:00,72.0,63.1,29.86,SW,225,2.0,2.0,74,0.00,,,0.00,meteohub,2013-03-19 03:07:00,
2013-03-18 22:12:00,71.6,63.3,29.87,West,270,1.0,2.0,75,0.00,,,0.00,meteohub,2013-03-19 03:12:00,
2013-03-18 22:17:00,71.4,63.5,29.88,SW,225,2.0,2.0,76,0.00,,,0.00,meteohub,2013-03-19 03:17:00,
2013-03-18 22:27:00,71.1,63.9,29.89,NW,315,2.0,2.0,78,0.00,,,0.00,meteohub,2013-03-19 03:27:00,
2013-03-18 22:37:00,71.6,64.8,29.90,East,90,1.0,3.0,79,0.00,,,0.00,meteohub,2013-03-19 03:37:00,
2013-03-18 22:42:00,71.6,64.8,29.90,South,180,2.0,3.0,79,0.00,,,0.00,meteohub,2013-03-19 03:42:00,
2013-03-18 22:52:00,72.0,64.8,29.90,NW,315,2.0,3.0,78,0.00,,,0.00,meteohub,2013-03-19 03:52:00,
2013-03-18 23:02:00,71.8,64.6,29.90,NW,315,2.0,2.0,78,0.00,,,0.00,meteohub,2013-03-19 04:02:00,
2013-03-18 23:07:00,71.8,64.6,29.91,NW,315,2.0,2.0,78,0.00,,,0.00,meteohub,2013-03-19 04:07:00,
2013-03-18 23:12:00,72.0,62.8,29.91,NW,315,7.0,7.0,73,0.00,,,0.00,meteohub,2013-03-19 04:12:00,
2013-03-18 23:22:00,71.8,60.6,29.91,NW,315,4.0,9.0,68,0.00,,,0.00,meteohub,2013-03-19 04:22:00,
2013-03-18 23:27:00,71.6,60.1,29.92,NW,315,4.0,9.0,67,0.00,,,0.00,meteohub,2013-03-19 04:27:00,
2013-03-18 23:32:00,71.2,60.1,29.92,West,270,4.0,9.0,68,0.00,,,0.00,meteohub,2013-03-19 04:32:00,
2013-03-18 23:37:00,70.9,59.7,29.92,NW,315,2.0,8.0,68,0.00,,,0.00,meteohub,2013-03-19 04:37:00,
2013-03-18 23:47:00,70.3,60.1,29.92,NE,45,8.0,8.0,70,0.00,,,0.00,meteohub,2013-03-19 04:47:00,
2013-03-18 23:52:00,70.2,59.9,29.93,NW,315,4.0,11.0,70,0.00,,,0.00,meteohub,2013-03-19 04:52:00,
2013-03-18 23:57:00,70.0,60.1,29.93,NW,315,2.0,11.0,71,0.00,,,0.00,meteohub,2013-03-19 04:57:00,